Wind_Speed
10 12 13 14 16 16 17 18 18 18 20 22 20 24 20 21 23 24 23 24 26 28 27 29 32 31 32 30 30 31 32 33 34 35 37 39 41 42 42 43 43 42 42
13 15 15 16 16 16 16 16 15 16 19 18 13 17 15 16 18 19 20 20 20 21 22 22 22 22 22 21 21 21 21 21 23 24 25 26 28 30 32 35 38 40 42
15 15 15 15 14 14 13 13 12 12 17 14 14 15 15 15 15 16 16 17 13 12 15 18 19 21 22 23 24 24 24 25 26 28 29 30 31 31 32 34 37 37 39
14 14 14 13 12 11 11 12 12 12 13 14 13 11 10 10 10 11 12 14 16 18 17 18 20 22 23 23 25 26 26 27 27 29 30 32 34 35 37 39 41 43 43
13 14 12 11 10 10 10 10 10 10 8 7 6 7 8 9 10 12 13 14 16 18 21 21 21 21 23 25 26 27 28 29 31 32 34 35 37 39 40 43 45 46 48
12 13 12 12 10 10 9 8 6 4 4 4 6 7 8 9 10 12 14 16 17 19 20 22 25 27 24 25 26 29 31 32 34 36 37 39 41 43 45 46 48 50 50
11 11 12 11 8 6 3 1 1 2 3 5 5 6 6 8 10 12 14 15 17 19 21 23 25 26 30 31 29 29 33 34 36 38 40 42 43 45 47 48 49 51 51
12 11 11 8 3 1 1 2 2 2 3 4 4 5 7 8 11 13 15 17 19 22 24 25 26 28 29 32 34 35 36 38 40 43 45 46 47 48 49 49 49 49 49
12 8 5 4 2 1 2 3 2 2 3 3 4 5 6 7 12 13 15 17 20 23 25 28 29 31 31 32 33 35 38 41 43 45 45 46 46 46 46 47 46 46 47
7 6 5 4 1 3 3 2 2 2 1 3 4 5 6 7 10 12 17 21 24 26 27 28 30 32 32 33 35 38 40 42 44 45 46 46 45 45 45 44 45 46 47
8 7 3 5 5 5 3 1 1 0 1 2 3 4 6 7 9 12 16 19 23 27 29 30 31 33 35 37 39 41 43 45 46 47 47 46 45 45 45 46 46 46 47
12 9 7 6 6 4 3 3 2 1 1 2 4 6 7 10 12 15 17 20 24 27 30 33 33 34 35 37 40 41 44 45 46 47 46 45 46 46 46 46 46 46 46
10 9 8 7 6 5 5 3 2 1 1 4 6 8 10 14 16 19 21 22 25 28 30 33 34 35 37 39 41 42 43 44 43 44 46 46 45 45 44 43 42 41 42
10 10 9 8 7 6 5 2 2 1 4 7 9 11 14 16 19 22 25 26 27 30 32 34 35 36 37 40 43 44 43 40 40 44 44 43 43 43 44 44 42 41 40
11 10 10 9 8 6 4 3 2 3 6 9 12 14 17 19 22 24 26 29 32 34 35 36 39 40 41 44 45 44 42 41 42 42 41 41 41 42 43 43 42 41 40
12 12 10 9 8 6 5 3 3 5 9 12 14 16 19 21 23 25 28 30 32 35 36 40 40 42 43 44 44 42 40 40 38 38 37 38 39 39 38 38 38 39 38
13 12 11 10 8 6 5 4 4 8 11 13 16 18 20 22 24 27 28 30 33 35 36 35 39 42 44 44 40 38 38 38 37 36 36 35 36 37 37 37 37 36 36
14 12 11 10 9 8 6 4 7 10 12 15 17 19 21 24 26 28 29 31 33 36 38 38 40 41 43 41 38 36 37 36 35 35 35 38 39 37 38 39 36 36 36
14 13 12 11 10 8 4 6 8 11 14 16 18 20 23 25 27 28 30 31 33 36 38 41 41 42 43 40 33 32 33 34 35 34 35 37 39 39 37 34 33 35 35
14 13 13 12 10 7 7 8 10 13 15 17 19 21 23 26 28 30 31 32 34 37 38 39 41 43 42 36 31 33 31 31 34 34 34 36 39 38 34 32 33 33 32
15 15 14 12 10 9 8 9 11 14 16 18 20 22 24 26 27 28 30 32 35 37 38 40 42 43 41 35 30 31 32 33 33 35 35 37 39 36 33 32 32 32 32
16 16 14 13 11 10 10 11 12 15 17 20 21 23 24 25 28 30 31 33 34 37 39 40 43 44 40 34 30 30 32 34 37 35 35 37 37 34 31 29 29 31 33
17 17 15 14 12 12 12 13 14 16 18 20 22 23 25 27 29 31 33 35 38 38 40 42 44 44 39 35 32 31 31 33 35 37 35 34 33 31 27 25 28 31 33
18 17 16 15 14 14 14 14 15 17 19 20 22 24 25 27 29 30 31 32 35 37 39 41 42 41 37 35 33 32 32 32 31 33 34 30 29 26 23 24 27 30 31
18 18 17 16 16 16 15 16 16 18 20 22 23 24 27 28 29 30 30 31 33 34 37 39 40 38 35 33 33 32 31 32 32 32 31 30 27 22 21 22 26 28 27
20 20 19 18 18 17 17 17 17 18 20 22 24 25 25 28 29 29 30 31 32 34 36 37 37 35 33 31 31 31 32 32 33 34 31 27 25 24 19 24 25 25 24
Wind_Direction
266 273 281 289 294 295 297 296 298 296 294 295 298 291 294 290 290 291 293 289 289 292 292 292 292 295 293 295 294 292 289 289 288 287 286 286 285 285 283 282 282 280 278
275 283 288 291 295 297 299 300 303 299 294 310 307 302 305 301 300 300 300 302 305 305 303 304 306 309 313 316 315 313 311 307 303 301 299 299 297 295 293 292 286 286 285
280 285 290 293 296 300 303 308 309 307 306 308 311 307 305 305 307 311 315 321 325 326 325 320 318 317 316 314 313 312 310 308 306 305 304 303 300 298 294 291 289 289 288
285 288 293 298 302 305 312 316 313 305 315 308 312 316 324 332 332 332 329 329 329 327 324 321 318 316 313 311 310 308 307 305 303 300 299 298 297 296 295 292 291 289 287
294 296 296 296 297 303 309 308 305 304 307 316 332 340 341 337 333 330 330 328 325 324 323 321 318 317 316 315 314 311 309 307 305 303 301 300 298 296 295 293 291 290 288
298 299 299 297 301 307 307 306 304 316 325 329 338 338 334 334 333 334 333 332 330 329 327 326 326 324 321 317 316 315 312 311 310 307 305 303 301 299 298 297 296 294 292
303 300 297 293 294 290 299 291 303 300 312 330 338 333 331 333 341 340 338 336 333 331 329 326 326 325 323 320 320 320 315 314 312 311 310 308 306 305 303 300 297 295 294
310 303 294 284 262 169 230 256 270 304 330 346 344 344 349 346 352 346 340 338 335 333 330 328 326 324 323 322 322 321 317 315 313 311 309 309 308 306 303 302 300 298 297
287 278 263 243 216 197 258 270 306 338 353 2 13 11 2 349 338 346 341 339 337 335 334 332 330 328 327 325 323 323 320 318 316 315 313 312 309 307 306 304 303 304 304
267 224 214 236 275 268 267 287 317 347 6 27 13 9 2 352 351 345 347 347 343 341 337 334 330 328 327 327 327 325 323 320 319 316 315 313 311 309 310 310 307 306 304
223 215 214 244 245 252 247 267 282 269 14 15 8 359 350 338 345 351 353 349 345 342 339 336 333 332 333 331 329 328 326 323 321 319 318 315 314 312 311 309 308 308 307
238 231 228 235 236 232 229 220 214 260 352 356 336 328 328 340 345 349 351 349 347 344 341 338 336 335 333 332 330 329 326 325 323 319 317 316 315 314 312 311 311 310 310
217 218 228 229 225 223 218 214 214 278 317 325 322 326 336 341 342 342 341 343 344 344 343 338 336 336 334 333 331 329 327 327 324 321 318 319 316 312 312 311 312 311 310
213 224 224 218 219 210 209 210 214 275 324 321 327 335 339 339 340 338 338 339 341 344 343 339 339 338 337 335 333 331 330 329 326 323 321 318 316 316 315 316 318 316 316
220 222 220 216 208 205 208 207 244 311 322 329 337 338 339 340 338 337 337 340 343 343 345 343 340 340 339 337 335 333 332 334 331 327 327 325 323 320 322 324 320 319 319
220 219 217 214 207 207 206 215 278 313 335 340 339 340 340 339 337 337 340 342 342 343 345 340 342 340 340 338 335 335 336 336 334 334 334 331 332 331 332 327 328 329 329
217 214 213 208 210 213 220 248 309 335 338 337 339 339 339 338 338 339 340 340 341 342 343 344 341 339 340 338 337 338 338 338 341 341 343 341 337 339 337 335 334 332 331
215 214 213 212 215 216 230 289 324 330 334 337 337 339 337 339 341 340 340 341 342 342 342 344 341 341 339 339 339 340 342 345 347 349 345 347 343 341 338 336 338 340 343
216 216 214 217 219 223 257 296 315 328 333 334 335 336 340 341 340 340 340 340 341 342 343 343 342 340 341 341 339 341 346 346 351 351 347 346 344 343 342 342 344 345 345
217 218 219 221 222 234 263 295 316 326 329 329 333 337 339 340 340 340 339 339 341 342 343 341 340 341 341 342 341 341 345 349 349 353 349 343 345 344 345 347 347 348 351
219 220 222 225 229 243 270 297 312 316 321 328 334 338 340 339 340 337 338 339 340 342 341 341 341 342 341 344 339 342 345 346 350 351 348 344 347 346 345 348 351 354 355
221 222 225 229 236 252 274 292 303 312 321 329 334 335 336 337 338 340 339 340 341 340 341 342 342 342 343 342 338 340 343 346 346 348 349 346 347 347 347 350 353 356 356
223 224 228 233 243 258 275 289 300 311 321 328 331 333 336 339 340 342 342 340 341 341 342 343 344 342 341 339 339 338 341 346 347 345 349 345 346 349 351 354 356 359 360
225 227 231 238 247 259 273 287 299 310 319 325 329 333 336 339 341 341 342 341 341 341 342 342 342 341 339 336 336 338 338 343 347 345 343 347 350 354 357 357 359 4 4
228 230 235 242 250 259 273 286 298 311 318 325 329 334 335 339 340 339 340 341 341 340 341 342 342 341 337 335 334 333 337 340 343 347 348 347 352 356 354 1 7 8 10
230 233 237 243 250 260 274 287 300 311 318 323 329 333 335 335 337 339 340 341 340 341 342 343 342 341 338 336 334 333 336 340 342 344 349 350 350 350 0 4 8 13 16
Height
3171 3170 3170 3169 3169 3168 3167 3166 3165 3164 3162 3160 3160 3156 3158 3157 3154 3153 3152 3151 3149 3147 3145 3143 3141 3138 3135 3135 3132 3130 3127 3125 3122 3120 3117 3115 3114 3112 3110 3108 3105 3104 3102
3168 3168 3167 3167 3166 3165 3164 3162 3162 3160 3157 3157 3156 3153 3153 3152 3150 3149 3148 3147 3145 3143 3141 3139 3137 3134 3132 3130 3127 3125 3123 3120 3117 3114 3112 3110 3107 3105 3102 3098 3096 3094 3091
3166 3166 3165 3164 3163 3162 3160 3159 3158 3158 3155 3154 3154 3152 3150 3149 3147 3147 3145 3143 3142 3141 3139 3136 3134 3132 3129 3126 3124 3121 3119 3116 3113 3109 3107 3104 3101 3099 3095 3092 3088 3086 3083
3165 3163 3162 3161 3160 3159 3158 3157 3156 3155 3155 3153 3152 3151 3149 3147 3147 3146 3144 3142 3140 3138 3137 3135 3132 3130 3127 3124 3121 3117 3114 3111 3108 3105 3102 3098 3094 3091 3087 3083 3080 3076 3073
3162 3161 3160 3159 3158 3157 3156 3155 3154 3154 3154 3152 3151 3151 3149 3148 3146 3145 3143 3141 3139 3137 3134 3131 3129 3127 3124 3120 3117 3113 3109 3106 3103 3099 3095 3091 3087 3083 3079 3075 3070 3066 3063
3158 3158 3158 3157 3156 3155 3154 3154 3153 3153 3153 3152 3151 3150 3149 3147 3146 3144 3142 3139 3137 3134 3131 3128 3124 3120 3119 3116 3113 3109 3104 3101 3096 3092 3088 3083 3079 3074 3069 3064 3059 3054 3050
3156 3155 3156 3155 3154 3153 3152 3152 3152 3153 3152 3151 3150 3149 3149 3147 3145 3143 3141 3138 3135 3132 3129 3126 3122 3119 3114 3110 3108 3105 3099 3095 3090 3085 3079 3074 3069 3064 3059 3053 3048 3043 3038
3153 3153 3154 3154 3153 3152 3152 3152 3153 3151 3151 3150 3150 3149 3148 3147 3144 3142 3139 3136 3133 3129 3126 3123 3120 3116 3112 3107 3102 3098 3093 3088 3082 3077 3071 3066 3060 3054 3047 3042 3036 3030 3024
3154 3154 3152 3153 3152 3152 3153 3152 3151 3151 3150 3150 3149 3149 3147 3146 3144 3141 3138 3135 3131 3127 3123 3119 3116 3112 3108 3103 3099 3094 3087 3081 3075 3069 3062 3056 3049 3043 3037 3031 3024 3019 3014
3150 3152 3151 3152 3151 3152 3152 3152 3151 3150 3150 3149 3149 3148 3147 3146 3144 3142 3137 3132 3128 3124 3121 3118 3113 3109 3105 3099 3094 3087 3081 3075 3068 3060 3054 3047 3040 3033 3027 3022 3016 3010 3004
3150 3150 3149 3150 3150 3151 3151 3151 3151 3150 3149 3148 3148 3147 3146 3146 3144 3140 3137 3132 3128 3123 3118 3114 3110 3105 3099 3093 3087 3081 3074 3066 3059 3051 3044 3037 3031 3024 3018 3012 3006 2999 2992
3149 3149 3149 3151 3151 3150 3150 3150 3150 3149 3149 3148 3147 3147 3146 3143 3141 3138 3135 3131 3127 3122 3116 3111 3106 3101 3095 3090 3083 3076 3067 3059 3051 3043 3036 3029 3022 3015 3008 3001 2995 2988 2982
3147 3147 3148 3150 3150 3149 3150 3150 3149 3149 3148 3147 3147 3145 3143 3140 3138 3135 3132 3129 3126 3120 3115 3109 3103 3098 3091 3084 3077 3069 3061 3053 3045 3036 3028 3021 3014 3007 3000 2993 2987 2981 2974
3145 3146 3147 3149 3149 3150 3150 3149 3148 3148 3147 3147 3145 3142 3140 3138 3135 3132 3128 3125 3122 3117 3111 3105 3099 3094 3087 3079 3070 3061 3054 3048 3040 3030 3022 3015 3006 2999 2991 2984 2978 2971 2964
3144 3145 3147 3149 3148 3149 3149 3149 3148 3148 3147 3145 3143 3140 3137 3135 3132 3129 3125 3121 3115 3110 3106 3100 3092 3085 3079 3070 3062 3054 3047 3040 3032 3023 3016 3008 3000 2992 2984 2977 2969 2963 2955
3143 3145 3146 3147 3147 3148 3148 3148 3147 3146 3145 3142 3140 3138 3136 3133 3130 3127 3122 3117 3112 3107 3102 3092 3087 3079 3072 3065 3056 3048 3041 3035 3027 3018 3011 3002 2994 2987 2979 2971 2964 2955 2948
3141 3142 3144 3145 3146 3146 3147 3147 3145 3143 3142 3141 3138 3136 3134 3131 3127 3122 3118 3114 3108 3103 3098 3093 3083 3075 3067 3060 3052 3045 3037 3030 3021 3013 3005 2999 2991 2983 2975 2967 2959 2951 2944
3139 3141 3142 3143 3144 3145 3145 3144 3143 3142 3141 3139 3137 3134 3132 3128 3123 3119 3115 3110 3104 3098 3092 3086 3078 3072 3064 3056 3047 3040 3032 3024 3017 3008 3002 2994 2986 2979 2971 2963 2955 2946 2938
3136 3138 3140 3142 3143 3143 3143 3143 3142 3141 3139 3137 3135 3132 3128 3125 3120 3116 3111 3106 3101 3095 3087 3080 3074 3067 3059 3050 3044 3037 3030 3021 3013 3006 2998 2991 2983 2975 2967 2959 2951 2943 2935
3134 3136 3138 3140 3140 3141 3141 3141 3140 3138 3137 3136 3133 3129 3126 3121 3117 3112 3107 3102 3097 3090 3084 3077 3070 3062 3054 3047 3038 3031 3027 3019 3010 3003 2996 2988 2980 2972 2964 2957 2949 2942 2934
3132 3134 3136 3137 3138 3139 3139 3138 3138 3137 3136 3133 3130 3126 3123 3119 3115 3110 3104 3099 3093 3086 3080 3072 3065 3058 3049 3041 3034 3028 3021 3015 3008 3001 2994 2985 2976 2969 2961 2954 2947 2941 2933
3129 3131 3133 3134 3135 3136 3136 3136 3136 3135 3133 3130 3126 3123 3120 3117 3111 3106 3101 3095 3089 3083 3075 3068 3059 3051 3043 3037 3031 3025 3018 3010 3002 2999 2991 2983 2974 2967 2960 2953 2947 2941 2933
3126 3129 3130 3131 3132 3133 3134 3134 3133 3132 3129 3126 3124 3120 3116 3112 3107 3102 3096 3089 3083 3077 3070 3062 3055 3047 3040 3033 3027 3022 3016 3009 3001 2994 2989 2982 2974 2967 2960 2954 2948 2941 2934
3124 3126 3127 3128 3130 3131 3131 3131 3130 3128 3126 3123 3120 3117 3113 3109 3104 3099 3094 3088 3081 3074 3067 3060 3053 3045 3037 3030 3023 3017 3011 3006 3001 2993 2986 2981 2973 2967 2960 2955 2949 2942 2935
3120 3122 3124 3125 3127 3128 3128 3127 3126 3124 3122 3119 3116 3113 3109 3105 3100 3096 3092 3086 3080 3073 3066 3058 3050 3042 3034 3027 3020 3015 3009 3003 2997 2992 2985 2978 2973 2967 2962 2956 2950 2943 2937
3116 3119 3121 3122 3124 3124 3124 3123 3122 3120 3118 3115 3112 3109 3106 3101 3097 3093 3087 3082 3076 3069 3063 3056 3048 3039 3032 3025 3018 3012 3005 3000 2993 2988 2983 2978 2972 2967 2963 2956 2951 2946 2940